Time,TemperatureF,DewpointF,PressureIn,WindDirection,WindDirectionDegrees,WindSpeedMPH,WindSpeedGustMPH,Humidity,HourlyPrecipIn,Conditions,Clouds,dailyrainin,SoftwareType,DateUTC
2013-03-16 00:03:00,53.3,41.0,29.88,WSW,246,0.0,0.0,63,0.00,,---,0.00,VWS V14.01,2013-03-16 04:03:00,
2013-03-16 00:08:00,53.3,41.0,29.88,SSW,196,0.0,3.0,63,0.00,,---,0.00,VWS V14.01,2013-03-16 04:08:00,
2013-03-16 00:13:00,53.3,41.0,29.88,NW,305,0.0,0.0,63,0.00,,---,0.00,VWS V14.01,2013-03-16 04:13:00,
2013-03-16 00:18:00,53.2,41.0,29.88,South,172,0.0,3.0,63,0.00,,---,0.00,VWS V14.01,2013-03-16 04:18:00,
2013-03-16 00:23:00,53.2,41.3,29.88,South,172,3.0,3.0,64,0.00,,---,0.00,VWS V14.01,2013-03-16 04:23:00,
2013-03-16 00:28:00,53.1,40.8,29.88,SSW,213,0.0,3.0,63,0.00,,---,0.00,VWS V14.01,2013-03-16 04:28:00,
2013-03-16 00:33:00,53.1,40.8,29.87,SW,233,0.0,0.0,63,0.00,,---,0.00,VWS V14.01,2013-03-16 04:33:00,
2013-03-16 00:38:00,53.1,40.8,29.87,SSW,213,0.0,2.0,63,0.00,,---,0.00,VWS V14.01,2013-03-16 04:38:00,
2013-03-16 00:43:00,53.1,41.3,29.87,SSE,160,0.0,0.0,64,0.00,,---,0.00,VWS V14.01,2013-03-16 04:43:00,
2013-03-16 00:48:00,53.2,41.0,29.87,SSE,160,0.0,2.0,63,0.00,,---,0.00,VWS V14.01,2013-03-16 04:48:00,
2013-03-16 00:53:00,53.3,41.0,29.87,SW,229,0.0,0.0,63,0.00,,---,0.00,VWS V14.01,2013-03-16 04:53:00,
2013-03-16 00:58:00,53.3,41.0,29.87,West,278,0.0,3.0,63,0.00,,---,0.00,VWS V14.01,2013-03-16 04:58:00,
2013-03-16 01:03:00,53.3,41.0,29.86,West,271,0.0,1.0,63,0.00,,---,0.00,VWS V14.01,2013-03-16 05:03:00,
2013-03-16 01:08:00,53.5,41.2,29.86,WNW,284,0.0,5.0,63,0.00,,---,0.00,VWS V14.01,2013-03-16 05:08:00,
2013-03-16 01:13:00,53.5,41.2,29.86,SE,130,0.0,0.0,63,0.00,,---,0.00,VWS V14.01,2013-03-16 05:13:00,
2013-03-16 01:18:00,53.5,41.2,29.86,WSW,251,0.0,4.0,63,0.00,,---,0.00,VWS V14.01,2013-03-16 05:18:00,
2013-03-16 01:23:00,53.6,41.3,29.86,South,189,0.0,0.0,63,0.00,,---,0.00,VWS V14.01,2013-03-16 05:23:00,
2013-03-16 01:28:00,53.5,41.6,29.86,West,261,0.0,2.0,64,0.00,,---,0.00,VWS V14.01,2013-03-16 05:28:00,
2013-03-16 01:33:00,53.5,41.2,29.86,SSW,209,0.0,1.0,63,0.00,,---,0.00,VWS V14.01,2013-03-16 05:33:00,
2013-03-16 01:38:00,53.5,41.2,29.86,WSW,243,0.0,2.0,63,0.00,,---,0.00,VWS V14.01,2013-03-16 05:38:00,
2013-03-16 01:43:00,53.5,41.2,29.86,WNW,282,0.0,0.0,63,0.00,,---,0.00,VWS V14.01,2013-03-16 05:43:00,
2013-03-16 01:48:00,53.5,41.6,29.85,West,275,0.0,3.0,64,0.00,,---,0.00,VWS V14.01,2013-03-16 05:48:00,
2013-03-16 01:53:00,53.5,41.6,29.85,WSW,257,0.0,0.0,64,0.00,,---,0.00,VWS V14.01,2013-03-16 05:53:00,
2013-03-16 01:58:00,53.3,41.5,29.85,WSW,257,0.0,1.0,64,0.00,,---,0.00,VWS V14.01,2013-03-16 05:58:00,
2013-03-16 02:03:00,53.3,41.5,29.85,SW,223,2.0,2.0,64,0.00,,---,0.00,VWS V14.01,2013-03-16 06:03:00,
2013-03-16 02:08:00,53.3,41.5,29.85,WSW,239,0.0,7.0,64,0.00,,---,0.00,VWS V14.01,2013-03-16 06:08:00,
2013-03-16 02:13:00,53.3,41.5,29.85,WSW,239,0.0,1.0,64,0.00,,---,0.00,VWS V14.01,2013-03-16 06:13:00,
2013-03-16 02:18:00,53.5,41.6,29.84,WSW,239,0.0,1.0,64,0.00,,---,0.00,VWS V14.01,2013-03-16 06:18:00,
2013-03-16 02:23:00,53.5,41.6,29.84,SW,234,0.0,0.0,64,0.00,,---,0.00,VWS V14.01,2013-03-16 06:23:00,
2013-03-16 02:28:00,53.5,41.6,29.84,SSW,193,0.0,0.0,64,0.00,,---,0.00,VWS V14.01,2013-03-16 06:28:00,
2013-03-16 02:33:00,53.6,41.7,29.84,NW,308,0.0,2.0,64,0.00,,---,0.00,VWS V14.01,2013-03-16 06:33:00,
2013-03-16 02:38:00,53.6,41.7,29.84,WNW,296,0.0,2.0,64,0.00,,---,0.00,VWS V14.01,2013-03-16 06:38:00,
2013-03-16 02:43:00,53.6,41.7,29.84,WSW,257,2.0,2.0,64,0.00,,---,0.00,VWS V14.01,2013-03-16 06:43:00,
2013-03-16 02:48:00,53.8,41.9,29.83,WSW,256,0.0,3.0,64,0.00,,---,0.00,VWS V14.01,2013-03-16 06:48:00,
2013-03-16 02:53:00,53.9,42.0,29.83,WNW,284,0.0,0.0,64,0.00,,---,0.00,VWS V14.01,2013-03-16 06:53:00,
2013-03-16 02:58:00,54.1,41.8,29.83,SW,234,5.0,5.0,63,0.00,,---,0.00,VWS V14.01,2013-03-16 06:58:00,
2013-03-16 03:03:00,54.2,41.9,29.83,WSW,244,1.0,3.0,63,0.00,,---,0.00,VWS V14.01,2013-03-16 07:03:00,
2013-03-16 03:08:00,54.5,42.2,29.83,West,272,1.0,5.0,63,0.00,,---,0.00,VWS V14.01,2013-03-16 07:08:00,
2013-03-16 03:13:00,54.7,42.0,29.83,WSW,248,1.0,1.0,62,0.00,,---,0.00,VWS V14.01,2013-03-16 07:13:00,
2013-03-16 03:18:00,54.8,42.0,29.83,WSW,241,3.0,5.0,62,0.00,,---,0.00,VWS V14.01,2013-03-16 07:18:00,
2013-03-16 03:23:00,55.3,42.1,29.83,NNW,346,2.0,3.0,61,0.00,,---,0.00,VWS V14.01,2013-03-16 07:23:00,
2013-03-16 03:28:00,55.4,42.2,29.83,WSW,256,1.0,3.0,61,0.00,,---,0.00,VWS V14.01,2013-03-16 07:28:00,
2013-03-16 03:33:00,55.6,42.0,29.82,WSW,241,2.0,3.0,60,0.00,,---,0.00,VWS V14.01,2013-03-16 07:33:00,
2013-03-16 03:38:00,55.6,42.0,29.82,South,188,0.0,7.0,60,0.00,,---,0.00,VWS V14.01,2013-03-16 07:38:00,
2013-03-16 03:43:00,55.7,42.5,29.82,SSW,208,1.0,1.0,61,0.00,,---,0.00,VWS V14.01,2013-03-16 07:43:00,
2013-03-16 03:48:00,55.6,42.4,29.82,WNW,291,0.0,2.0,61,0.00,,---,0.00,VWS V14.01,2013-03-16 07:48:00,
2013-03-16 03:53:00,55.7,42.0,29.82,SW,236,7.0,7.0,60,0.00,,---,0.00,VWS V14.01,2013-03-16 07:53:00,
2013-03-16 03:58:00,55.7,42.0,29.82,SW,224,1.0,7.0,60,0.00,,---,0.00,VWS V14.01,2013-03-16 07:58:00,
2013-03-16 04:03:00,55.7,42.5,29.82,West,263,0.0,0.0,61,0.00,,---,0.00,VWS V14.01,2013-03-16 08:03:00,
2013-03-16 04:08:00,55.7,42.5,29.82,WSW,253,0.0,5.0,61,0.00,,---,0.00,VWS V14.01,2013-03-16 08:08:00,
2013-03-16 04:13:00,55.7,42.5,29.82,SW,233,1.0,1.0,61,0.00,,---,0.00,VWS V14.01,2013-03-16 08:13:00,
2013-03-16 04:18:00,55.7,42.5,29.81,West,265,0.0,3.0,61,0.00,,---,0.00,VWS V14.01,2013-03-16 08:18:00,
2013-03-16 04:22:00,55.7,42.5,29.81,West,274,3.0,3.0,61,0.00,,---,0.00,VWS V14.01,2013-03-16 08:22:00,
2013-03-16 04:27:00,55.7,42.5,29.81,West,278,0.0,5.0,61,0.00,,---,0.00,VWS V14.01,2013-03-16 08:27:00,
2013-03-16 04:32:00,55.7,42.5,29.81,NW,316,0.0,0.0,61,0.00,,---,0.00,VWS V14.01,2013-03-16 08:32:00,
2013-03-16 04:37:00,55.7,42.5,29.81,WNW,289,0.0,2.0,61,0.00,,---,0.00,VWS V14.01,2013-03-16 08:37:00,
2013-03-16 04:42:00,55.7,42.5,29.81,WSW,257,0.0,0.0,61,0.00,,---,0.00,VWS V14.01,2013-03-16 08:42:00,
2013-03-16 04:47:00,55.7,42.5,29.81,NE,40,0.0,3.0,61,0.00,,---,0.00,VWS V14.01,2013-03-16 08:47:00,
2013-03-16 04:52:00,55.7,42.5,29.81,SW,230,0.0,0.0,61,0.00,,---,0.00,VWS V14.01,2013-03-16 08:52:00,
2013-03-16 04:57:00,55.9,42.7,29.81,West,277,0.0,2.0,61,0.00,,---,0.00,VWS V14.01,2013-03-16 08:57:00,
2013-03-16 05:02:00,55.9,42.7,29.81,SW,226,0.0,0.0,61,0.00,,---,0.00,VWS V14.01,2013-03-16 09:02:00,
2013-03-16 05:07:00,55.9,42.7,29.81,West,271,1.0,3.0,61,0.00,,---,0.00,VWS V14.01,2013-03-16 09:07:00,
2013-03-16 05:12:00,55.9,42.7,29.81,WSW,247,3.0,3.0,61,0.00,,---,0.00,VWS V14.01,2013-03-16 09:12:00,
2013-03-16 05:17:00,55.9,42.7,29.81,SW,224,0.0,4.0,61,0.00,,---,0.00,VWS V14.01,2013-03-16 09:17:00,
2013-03-16 05:22:00,55.9,42.7,29.81,SSW,205,0.0,0.0,61,0.00,,---,0.00,VWS V14.01,2013-03-16 09:22:00,
2013-03-16 05:27:00,56.0,42.8,29.81,West,271,0.0,4.0,61,0.00,,---,0.00,VWS V14.01,2013-03-16 09:27:00,
2013-03-16 05:32:00,56.0,42.8,29.81,West,263,0.0,0.0,61,0.00,,---,0.00,VWS V14.01,2013-03-16 09:32:00,
2013-03-16 05:37:00,56.2,42.5,29.81,WSW,244,0.0,5.0,60,0.00,,---,0.00,VWS V14.01,2013-03-16 09:37:00,
2013-03-16 05:42:00,56.2,43.0,29.81,WNW,292,0.0,1.0,61,0.00,,---,0.00,VWS V14.01,2013-03-16 09:42:00,
2013-03-16 05:47:00,56.3,43.0,29.81,SW,230,0.0,4.0,61,0.00,,---,0.00,VWS V14.01,2013-03-16 09:47:00,
2013-03-16 05:52:00,56.3,42.6,29.81,SW,230,0.0,0.0,60,0.00,,---,0.00,VWS V14.01,2013-03-16 09:52:00,
2013-03-16 05:57:00,56.5,42.8,29.81,WNW,284,1.0,3.0,60,0.00,,---,0.00,VWS V14.01,2013-03-16 09:57:00,
2013-03-16 06:02:00,56.5,42.8,29.81,NW,313,0.0,0.0,60,0.00,,---,0.00,VWS V14.01,2013-03-16 10:02:00,
2013-03-16 06:07:00,56.6,42.5,29.81,SSW,193,1.0,5.0,59,0.00,,---,0.00,VWS V14.01,2013-03-16 10:07:00,
2013-03-16 06:12:00,56.7,42.5,29.81,WSW,244,0.0,0.0,59,0.00,,---,0.00,VWS V14.01,2013-03-16 10:12:00,
2013-03-16 06:17:00,56.9,42.7,29.82,West,260,1.0,6.0,59,0.00,,---,0.00,VWS V14.01,2013-03-16 10:17:00,
2013-03-16 06:22:00,56.9,42.7,29.82,SSW,205,0.0,0.0,59,0.00,,---,0.00,VWS V14.01,2013-03-16 10:22:00,
2013-03-16 06:27:00,56.9,43.2,29.82,West,272,0.0,3.0,60,0.00,,---,0.00,VWS V14.01,2013-03-16 10:27:00,
2013-03-16 06:32:00,56.9,42.7,29.82,WSW,256,2.0,2.0,59,0.00,,---,0.00,VWS V14.01,2013-03-16 10:32:00,
2013-03-16 06:37:00,56.9,42.7,29.82,West,260,0.0,2.0,59,0.00,,---,0.00,VWS V14.01,2013-03-16 10:37:00,
2013-03-16 06:42:00,56.9,43.2,29.82,NNE,20,1.0,1.0,60,0.00,,---,0.00,VWS V14.01,2013-03-16 10:42:00,
2013-03-16 06:47:00,56.9,42.7,29.82,SW,233,0.0,3.0,59,0.00,,---,0.00,VWS V14.01,2013-03-16 10:47:00,
2013-03-16 06:52:00,56.9,42.7,29.82,WSW,239,3.0,6.0,59,0.00,,---,0.00,VWS V14.01,2013-03-16 10:52:00,
2013-03-16 06:57:00,57.0,42.8,29.82,WSW,240,1.0,6.0,59,0.00,,---,0.00,VWS V14.01,2013-03-16 10:57:00,
2013-03-16 07:02:00,57.0,42.8,29.81,WSW,240,0.0,0.0,59,0.00,,---,0.00,VWS V14.01,2013-03-16 11:02:00,
2013-03-16 07:07:00,57.2,43.0,29.81,North,356,3.0,3.0,59,0.00,,---,0.00,VWS V14.01,2013-03-16 11:07:00,
2013-03-16 07:12:00,57.2,43.0,29.81,NNW,342,3.0,3.0,59,0.00,,---,0.00,VWS V14.01,2013-03-16 11:12:00,
2013-03-16 07:17:00,57.2,43.0,29.82,West,271,0.0,3.0,59,0.00,,---,0.00,VWS V14.01,2013-03-16 11:17:00,
2013-03-16 07:22:00,57.2,43.0,29.82,WNW,284,0.0,0.0,59,0.00,,---,0.00,VWS V14.01,2013-03-16 11:22:00,
2013-03-16 07:27:00,57.2,43.0,29.82,SW,222,3.0,3.0,59,0.00,,---,0.00,VWS V14.01,2013-03-16 11:27:00,
2013-03-16 07:32:00,57.2,43.0,29.82,West,267,0.0,0.0,59,0.00,,---,0.00,VWS V14.01,2013-03-16 11:32:00,
2013-03-16 07:37:00,57.2,43.5,29.82,WSW,240,0.0,3.0,60,0.00,,---,0.00,VWS V14.01,2013-03-16 11:37:00,
2013-03-16 07:42:00,57.2,43.5,29.82,WSW,240,0.0,0.0,60,0.00,,---,0.00,VWS V14.01,2013-03-16 11:42:00,
2013-03-16 07:47:00,57.2,43.5,29.82,WSW,240,0.0,0.0,60,0.00,,---,0.00,VWS V14.01,2013-03-16 11:47:00,
2013-03-16 07:52:00,57.2,43.5,29.82,WSW,240,0.0,0.0,60,0.00,,---,0.00,VWS V14.01,2013-03-16 11:52:00,
2013-03-16 07:57:00,57.2,43.9,29.82,West,272,0.0,2.0,61,0.00,,---,0.00,VWS V14.01,2013-03-16 11:57:00,
2013-03-16 08:02:00,57.2,43.5,29.82,South,189,2.0,3.0,60,0.00,,---,0.00,VWS V14.01,2013-03-16 12:02:00,
2013-03-16 08:07:00,57.2,43.9,29.82,SW,223,0.0,3.0,61,0.00,,---,0.00,VWS V14.01,2013-03-16 12:07:00,
2013-03-16 08:12:00,57.2,43.5,29.82,WSW,258,0.0,0.0,60,0.00,,---,0.00,VWS V14.01,2013-03-16 12:12:00,
2013-03-16 08:17:00,57.3,44.0,29.82,WSW,258,0.0,3.0,61,0.00,,---,0.00,VWS V14.01,2013-03-16 12:17:00,
2013-03-16 08:22:00,57.3,44.0,29.82,WSW,258,0.0,3.0,61,0.00,,---,0.00,VWS V14.01,2013-03-16 12:22:00,
2013-03-16 08:28:00,57.5,43.7,29.82,West,281,5.0,6.0,60,0.00,,---,0.00,VWS V14.01,2013-03-16 12:28:00,
2013-03-16 08:33:00,57.5,44.2,29.82,West,270,0.0,0.0,61,0.00,,---,0.00,VWS V14.01,2013-03-16 12:33:00,
2013-03-16 08:38:00,57.6,44.3,29.82,NW,308,1.0,3.0,61,0.00,,---,0.00,VWS V14.01,2013-03-16 12:38:00,
2013-03-16 08:43:00,57.8,44.5,29.82,SW,234,0.0,0.0,61,0.00,,---,0.00,VWS V14.01,2013-03-16 12:43:00,
2013-03-16 08:48:00,58.0,44.6,29.83,West,272,0.0,5.0,61,0.00,,---,0.00,VWS V14.01,2013-03-16 12:48:00,
2013-03-16 08:53:00,58.1,44.3,29.83,WSW,247,2.0,2.0,60,0.00,,---,0.00,VWS V14.01,2013-03-16 12:53:00,
2013-03-16 08:58:00,58.3,44.9,29.83,NW,308,0.0,2.0,61,0.00,,---,0.00,VWS V14.01,2013-03-16 12:58:00,
2013-03-16 09:03:00,58.3,44.5,29.83,WNW,291,0.0,0.0,60,0.00,,---,0.00,VWS V14.01,2013-03-16 13:03:00,
2013-03-16 09:08:00,58.6,45.6,29.83,NNW,339,0.0,3.0,62,0.00,,---,0.00,VWS V14.01,2013-03-16 13:08:00,
2013-03-16 09:13:00,58.7,45.3,29.83,West,274,2.0,2.0,61,0.00,,---,0.00,VWS V14.01,2013-03-16 13:13:00,
2013-03-16 09:18:00,58.9,44.6,29.83,WNW,294,0.0,5.0,59,0.00,,---,0.00,VWS V14.01,2013-03-16 13:18:00,
2013-03-16 09:23:00,59.2,44.9,29.83,WNW,295,0.0,2.0,59,0.00,,---,0.00,VWS V14.01,2013-03-16 13:23:00,
2013-03-16 09:28:00,59.5,45.2,29.83,WNW,294,2.0,5.0,59,0.00,,---,0.00,VWS V14.01,2013-03-16 13:28:00,
2013-03-16 09:33:00,59.8,45.0,29.83,WNW,294,3.0,3.0,58,0.00,,---,0.00,VWS V14.01,2013-03-16 13:33:00,
2013-03-16 09:37:00,59.9,45.1,29.83,West,278,0.0,6.0,58,0.00,,---,0.00,VWS V14.01,2013-03-16 13:37:00,
2013-03-16 09:43:00,60.2,44.9,29.83,NW,308,0.0,0.0,57,0.00,,---,0.00,VWS V14.01,2013-03-16 13:43:00,
2013-03-16 09:48:00,60.5,45.2,29.82,WSW,243,5.0,6.0,57,0.00,,---,0.00,VWS V14.01,2013-03-16 13:48:00,
2013-03-16 09:53:00,60.9,45.6,29.82,WNW,288,2.0,2.0,57,0.00,,---,0.00,VWS V14.01,2013-03-16 13:53:00,
2013-03-16 09:58:00,61.2,45.4,29.82,NNW,333,0.0,2.0,56,0.00,,---,0.00,VWS V14.01,2013-03-16 13:58:00,
2013-03-16 10:03:00,61.6,45.3,29.82,WNW,299,0.0,0.0,55,0.00,,---,0.00,VWS V14.01,2013-03-16 14:03:00,
2013-03-16 10:08:00,62.0,45.7,29.82,WNW,291,2.0,6.0,55,0.00,,---,0.00,VWS V14.01,2013-03-16 14:08:00,
2013-03-16 10:13:00,62.4,46.0,29.82,SW,233,6.0,6.0,55,0.00,,---,0.00,VWS V14.01,2013-03-16 14:13:00,
2013-03-16 10:18:00,62.9,46.0,29.82,WNW,284,0.0,6.0,54,0.00,,---,0.00,VWS V14.01,2013-03-16 14:18:00,
2013-03-16 10:23:00,63.2,46.3,29.82,West,280,0.0,0.0,54,0.00,,---,0.00,VWS V14.01,2013-03-16 14:23:00,
2013-03-16 10:28:00,63.7,46.3,29.82,NW,305,4.0,8.0,53,0.00,,---,0.00,VWS V14.01,2013-03-16 14:28:00,
2013-03-16 10:33:00,64.0,46.0,29.81,West,274,1.0,1.0,52,0.00,,---,0.00,VWS V14.01,2013-03-16 14:33:00,
2013-03-16 10:38:00,64.3,46.3,29.81,West,277,0.0,1.0,52,0.00,,---,0.00,VWS V14.01,2013-03-16 14:38:00,
2013-03-16 10:43:00,64.8,46.3,29.81,NNW,337,0.0,3.0,51,0.00,,---,0.00,VWS V14.01,2013-03-16 14:43:00,
2013-03-16 10:48:00,65.2,46.6,29.81,WSW,247,1.0,6.0,51,0.00,,---,0.00,VWS V14.01,2013-03-16 14:48:00,
2013-03-16 10:53:00,65.6,46.5,29.81,NW,304,0.0,0.0,50,0.00,,---,0.00,VWS V14.01,2013-03-16 14:53:00,
2013-03-16 10:58:00,65.8,46.7,29.81,WSW,251,2.0,11.0,50,0.00,,---,0.00,VWS V14.01,2013-03-16 14:58:00,
2013-03-16 11:03:00,66.3,46.6,29.80,NW,309,0.0,1.0,49,0.00,,---,0.00,VWS V14.01,2013-03-16 15:03:00,
2013-03-16 11:08:00,66.8,47.0,29.80,SSW,205,0.0,3.0,49,0.00,,---,0.00,VWS V14.01,2013-03-16 15:08:00,
2013-03-16 11:13:00,67.4,47.6,29.80,NW,308,1.0,4.0,49,0.00,,---,0.00,VWS V14.01,2013-03-16 15:13:00,
2013-03-16 11:18:00,67.9,47.0,29.80,West,281,7.0,8.0,47,0.00,,---,0.00,VWS V14.01,2013-03-16 15:18:00,
2013-03-16 11:23:00,68.3,46.7,29.80,WNW,289,5.0,7.0,46,0.00,,---,0.00,VWS V14.01,2013-03-16 15:23:00,
2013-03-16 11:28:00,68.4,46.8,29.80,NW,305,2.0,7.0,46,0.00,,---,0.00,VWS V14.01,2013-03-16 15:28:00,
2013-03-16 11:33:00,68.9,47.3,29.79,West,280,0.0,2.0,46,0.00,,---,0.00,VWS V14.01,2013-03-16 15:33:00,
2013-03-16 11:38:00,69.3,46.5,29.79,WNW,301,0.0,8.0,44,0.00,,---,0.00,VWS V14.01,2013-03-16 15:38:00,
2013-03-16 11:43:00,69.6,46.8,29.79,WSW,241,0.0,6.0,44,0.00,,---,0.00,VWS V14.01,2013-03-16 15:43:00,
2013-03-16 11:48:00,69.9,47.0,29.79,NW,315,2.0,8.0,44,0.00,,---,0.00,VWS V14.01,2013-03-16 15:48:00,
2013-03-16 11:53:00,70.3,46.8,29.79,WNW,301,2.0,3.0,43,0.00,,---,0.00,VWS V14.01,2013-03-16 15:53:00,
2013-03-16 11:58:00,70.6,47.0,29.79,West,264,3.0,4.0,43,0.00,,---,0.00,VWS V14.01,2013-03-16 15:58:00,
2013-03-16 12:03:00,71.1,48.1,29.78,NW,308,0.0,3.0,44,0.00,,---,0.00,VWS V14.01,2013-03-16 16:03:00,
2013-03-16 12:08:00,71.6,46.7,29.78,WSW,244,3.0,8.0,41,0.00,,---,0.00,VWS V14.01,2013-03-16 16:08:00,
2013-03-16 12:13:00,72.1,46.5,29.78,NE,34,0.0,3.0,40,0.00,,---,0.00,VWS V14.01,2013-03-16 16:13:00,
2013-03-16 12:18:00,72.5,46.8,29.77,West,278,5.0,5.0,40,0.00,,---,0.00,VWS V14.01,2013-03-16 16:18:00,
2013-03-16 12:23:00,72.8,46.4,29.77,West,278,0.0,2.0,39,0.00,,---,0.00,VWS V14.01,2013-03-16 16:23:00,
2013-03-16 12:28:00,73.2,47.5,29.77,SW,234,0.0,10.0,40,0.00,,---,0.00,VWS V14.01,2013-03-16 16:28:00,
2013-03-16 12:33:00,74.0,48.2,29.77,WNW,301,3.0,3.0,40,0.00,,---,0.00,VWS V14.01,2013-03-16 16:33:00,
2013-03-16 12:38:00,74.6,46.6,29.77,NNE,27,0.0,7.0,37,0.00,,---,0.00,VWS V14.01,2013-03-16 16:38:00,
2013-03-16 12:43:00,75.1,47.1,29.77,SW,227,1.0,3.0,37,0.00,,---,0.00,VWS V14.01,2013-03-16 16:43:00,
2013-03-16 12:48:00,75.4,47.3,29.76,NW,305,5.0,5.0,37,0.00,,---,0.00,VWS V14.01,2013-03-16 16:48:00,
2013-03-16 12:53:00,75.8,47.7,29.76,NNW,330,7.0,7.0,37,0.00,,---,0.00,VWS V14.01,2013-03-16 16:53:00,
2013-03-16 12:58:00,76.0,46.4,29.76,NW,325,0.0,11.0,35,0.00,,---,0.00,VWS V14.01,2013-03-16 16:58:00,
2013-03-16 13:03:00,76.0,46.4,29.75,WSW,251,0.0,3.0,35,0.00,,---,0.00,VWS V14.01,2013-03-16 17:03:00,
2013-03-16 13:08:00,76.1,47.2,29.75,WNW,296,5.0,9.0,36,0.00,,---,0.00,VWS V14.01,2013-03-16 17:08:00,
2013-03-16 13:13:00,76.5,46.1,29.75,WNW,291,5.0,7.0,34,0.00,,---,0.00,VWS V14.01,2013-03-16 17:13:00,
2013-03-16 13:18:00,76.7,47.0,29.74,West,272,0.0,9.0,35,0.00,,---,0.00,VWS V14.01,2013-03-16 17:18:00,
2013-03-16 13:23:00,77.2,46.7,29.74,WSW,241,4.0,4.0,34,0.00,,---,0.00,VWS V14.01,2013-03-16 17:23:00,
2013-03-16 13:28:00,77.7,46.3,29.74,NW,306,3.0,5.0,33,0.00,,---,0.00,VWS V14.01,2013-03-16 17:28:00,
2013-03-16 13:33:00,77.9,46.5,29.73,WNW,302,0.0,3.0,33,0.00,,---,0.00,VWS V14.01,2013-03-16 17:33:00,
2013-03-16 13:38:00,78.1,45.9,29.73,NW,318,0.0,8.0,32,0.00,,---,0.00,VWS V14.01,2013-03-16 17:38:00,
2013-03-16 13:43:00,78.3,46.9,29.73,WNW,302,5.0,5.0,33,0.00,,---,0.00,VWS V14.01,2013-03-16 17:43:00,
2013-03-16 13:48:00,78.5,46.2,29.73,WNW,287,5.0,5.0,32,0.00,,---,0.00,VWS V14.01,2013-03-16 17:48:00,
2013-03-16 13:53:00,78.8,46.5,29.73,WNW,299,0.0,2.0,32,0.00,,---,0.00,VWS V14.01,2013-03-16 17:53:00,
2013-03-16 13:58:00,79.2,46.8,29.73,WNW,298,4.0,7.0,32,0.00,,---,0.00,VWS V14.01,2013-03-16 17:58:00,
2013-03-16 14:03:00,79.4,46.2,29.72,West,268,0.0,4.0,31,0.00,,---,0.00,VWS V14.01,2013-03-16 18:03:00,
2013-03-16 14:08:00,79.6,45.5,29.72,NNW,328,3.0,9.0,30,0.00,,---,0.00,VWS V14.01,2013-03-16 18:08:00,
2013-03-16 14:13:00,79.4,45.3,29.72,WNW,295,0.0,6.0,30,0.00,,---,0.00,VWS V14.01,2013-03-16 18:13:00,
2013-03-16 14:18:00,79.6,46.3,29.71,NW,320,6.0,6.0,31,0.00,,---,0.00,VWS V14.01,2013-03-16 18:18:00,
2013-03-16 14:23:00,79.6,45.5,29.71,WSW,248,0.0,3.0,30,0.00,,---,0.00,VWS V14.01,2013-03-16 18:23:00,
2013-03-16 14:28:00,79.9,46.6,29.71,WNW,289,1.0,8.0,31,0.00,,---,0.00,VWS V14.01,2013-03-16 18:28:00,
2013-03-16 14:33:00,80.1,45.0,29.70,NNW,337,1.0,4.0,29,0.00,,---,0.00,VWS V14.01,2013-03-16 18:33:00,
2013-03-16 14:38:00,80.3,46.1,29.70,WSW,244,7.0,11.0,30,0.00,,---,0.00,VWS V14.01,2013-03-16 18:38:00,
2013-03-16 14:43:00,80.5,45.3,29.70,NW,306,3.0,7.0,29,0.00,,---,0.00,VWS V14.01,2013-03-16 18:43:00,
2013-03-16 14:48:00,80.5,46.2,29.70,NW,316,0.0,8.0,30,0.00,,---,0.00,VWS V14.01,2013-03-16 18:48:00,
2013-03-16 14:53:00,80.7,46.4,29.70,SW,226,1.0,1.0,30,0.00,,---,0.00,VWS V14.01,2013-03-16 18:53:00,
2013-03-16 14:58:00,80.9,46.6,29.70,NNW,330,5.0,9.0,30,0.00,,---,0.00,VWS V14.01,2013-03-16 18:58:00,
2013-03-16 15:03:00,80.9,45.7,29.69,WSW,256,4.0,4.0,29,0.00,,---,0.00,VWS V14.01,2013-03-16 19:03:00,
2013-03-16 15:08:00,80.9,46.6,29.69,SW,233,0.0,10.0,30,0.00,,---,0.00,VWS V14.01,2013-03-16 19:08:00,
2013-03-16 15:13:00,81.1,46.8,29.69,NW,309,1.0,5.0,30,0.00,,---,0.00,VWS V14.01,2013-03-16 19:13:00,
2013-03-16 15:18:00,80.9,45.7,29.68,SW,224,10.0,10.0,29,0.00,,---,0.00,VWS V14.01,2013-03-16 19:18:00,
2013-03-16 15:23:00,80.7,46.4,29.68,WNW,291,1.0,7.0,30,0.00,,---,0.00,VWS V14.01,2013-03-16 19:23:00,
2013-03-16 15:28:00,80.5,47.1,29.68,WNW,296,4.0,8.0,31,0.00,,---,0.00,VWS V14.01,2013-03-16 19:28:00,
2013-03-16 15:33:00,80.3,46.9,29.68,WNW,301,0.0,5.0,31,0.00,,---,0.00,VWS V14.01,2013-03-16 19:33:00,
2013-03-16 15:38:00,80.3,46.1,29.68,East,85,2.0,8.0,30,0.00,,---,0.00,VWS V14.01,2013-03-16 19:38:00,
2013-03-16 15:43:00,80.3,45.2,29.68,SW,224,6.0,6.0,29,0.00,,---,0.00,VWS V14.01,2013-03-16 19:43:00,
2013-03-16 15:48:00,80.3,46.9,29.67,NW,305,7.0,7.0,31,0.00,,---,0.00,VWS V14.01,2013-03-16 19:48:00,
2013-03-16 15:53:00,80.5,46.2,29.67,WNW,296,5.0,11.0,30,0.00,,---,0.00,VWS V14.01,2013-03-16 19:53:00,
2013-03-16 15:58:00,80.5,44.4,29.67,WSW,239,2.0,16.0,28,0.00,,---,0.00,VWS V14.01,2013-03-16 19:58:00,
2013-03-16 16:03:00,80.3,44.3,29.67,WSW,258,7.0,14.0,28,0.00,,---,0.00,VWS V14.01,2013-03-16 20:03:00,
2013-03-16 16:08:00,80.3,43.3,29.67,NW,313,0.0,17.0,27,0.00,,---,0.00,VWS V14.01,2013-03-16 20:08:00,
2013-03-16 16:13:00,80.3,44.3,29.67,WNW,287,10.0,10.0,28,0.00,,---,0.00,VWS V14.01,2013-03-16 20:13:00,
2013-03-16 16:18:00,80.1,44.1,29.67,WNW,296,7.0,10.0,28,0.00,,---,0.00,VWS V14.01,2013-03-16 20:18:00,
2013-03-16 16:23:00,80.1,44.1,29.67,NW,308,4.0,7.0,28,0.00,,---,0.00,VWS V14.01,2013-03-16 20:23:00,
2013-03-16 16:28:00,80.1,44.1,29.67,NW,322,0.0,13.0,28,0.00,,---,0.00,VWS V14.01,2013-03-16 20:28:00,
2013-03-16 16:33:00,80.1,44.1,29.67,NNW,337,0.0,6.0,28,0.00,,---,0.00,VWS V14.01,2013-03-16 20:33:00,
2013-03-16 16:38:00,80.3,44.3,29.67,West,277,3.0,11.0,28,0.00,,---,0.00,VWS V14.01,2013-03-16 20:38:00,
2013-03-16 16:43:00,80.1,42.2,29.67,SSW,209,3.0,8.0,26,0.00,,---,0.00,VWS V14.01,2013-03-16 20:43:00,
2013-03-16 16:48:00,80.1,42.2,29.67,West,270,7.0,12.0,26,0.00,,---,0.00,VWS V14.01,2013-03-16 20:48:00,
2013-03-16 16:53:00,80.1,43.1,29.67,WNW,298,5.0,13.0,27,0.00,,---,0.00,VWS V14.01,2013-03-16 20:53:00,
2013-03-16 16:58:00,80.1,42.2,29.67,WNW,302,0.0,13.0,26,0.00,,---,0.00,VWS V14.01,2013-03-16 20:58:00,
2013-03-16 17:03:00,80.1,44.1,29.67,WNW,302,1.0,6.0,28,0.00,,---,0.00,VWS V14.01,2013-03-16 21:03:00,
2013-03-16 17:08:00,80.1,43.1,29.67,WSW,240,11.0,12.0,27,0.00,,---,0.00,VWS V14.01,2013-03-16 21:08:00,
2013-03-16 17:13:00,80.1,42.2,29.67,WSW,253,5.0,12.0,26,0.00,,---,0.00,VWS V14.01,2013-03-16 21:13:00,
2013-03-16 17:18:00,79.9,43.0,29.66,NW,304,0.0,12.0,27,0.00,,---,0.00,VWS V14.01,2013-03-16 21:18:00,
2013-03-16 17:23:00,79.9,43.0,29.66,NW,309,5.0,6.0,27,0.00,,---,0.00,VWS V14.01,2013-03-16 21:23:00,
2013-03-16 17:28:00,79.8,42.9,29.66,SW,227,6.0,22.0,27,0.00,,---,0.00,VWS V14.01,2013-03-16 21:28:00,
2013-03-16 17:33:00,79.8,42.9,29.66,WNW,298,0.0,7.0,27,0.00,,---,0.00,VWS V14.01,2013-03-16 21:33:00,
2013-03-16 17:38:00,79.6,43.7,29.66,WSW,247,8.0,8.0,28,0.00,,---,0.00,VWS V14.01,2013-03-16 21:38:00,
2013-03-16 17:43:00,79.6,42.7,29.66,West,270,0.0,9.0,27,0.00,,---,0.00,VWS V14.01,2013-03-16 21:43:00,
2013-03-16 17:48:00,79.6,43.7,29.66,WNW,295,1.0,9.0,28,0.00,,---,0.00,VWS V14.01,2013-03-16 21:48:00,
2013-03-16 17:53:00,79.6,42.7,29.66,North,0,0.0,2.0,27,0.00,,---,0.00,VWS V14.01,2013-03-16 21:53:00,
2013-03-16 17:58:00,79.4,43.5,29.66,WSW,237,4.0,8.0,28,0.00,,---,0.00,VWS V14.01,2013-03-16 21:58:00,
2013-03-16 18:03:00,79.4,43.5,29.66,WSW,246,4.0,6.0,28,0.00,,---,0.00,VWS V14.01,2013-03-16 22:03:00,
2013-03-16 18:08:00,79.2,43.3,29.66,NNW,330,0.0,6.0,28,0.00,,---,0.00,VWS V14.01,2013-03-16 22:08:00,
2013-03-16 18:13:00,79.0,41.2,29.66,SSW,205,3.0,15.0,26,0.00,,---,0.00,VWS V14.01,2013-03-16 22:13:00,
2013-03-16 18:18:00,78.8,41.0,29.66,NW,312,3.0,15.0,26,0.00,,---,0.00,VWS V14.01,2013-03-16 22:18:00,
2013-03-16 18:23:00,78.8,41.0,29.66,WSW,244,2.0,13.0,26,0.00,,---,0.00,VWS V14.01,2013-03-16 22:23:00,
2013-03-16 18:28:00,78.6,41.9,29.66,SW,223,5.0,13.0,27,0.00,,---,0.00,VWS V14.01,2013-03-16 22:28:00,
2013-03-16 18:33:00,78.5,41.8,29.66,NW,319,4.0,6.0,27,0.00,,---,0.00,VWS V14.01,2013-03-16 22:33:00,
2013-03-16 18:38:00,78.3,41.6,29.66,WNW,295,7.0,7.0,27,0.00,,---,0.00,VWS V14.01,2013-03-16 22:38:00,
2013-03-16 18:43:00,77.9,41.3,29.66,WNW,284,0.0,0.0,27,0.00,,---,0.00,VWS V14.01,2013-03-16 22:43:00,
2013-03-16 18:48:00,77.7,42.0,29.67,WNW,292,2.0,5.0,28,0.00,,---,0.00,VWS V14.01,2013-03-16 22:48:00,
2013-03-16 18:53:00,77.6,41.0,29.67,NW,308,0.0,2.0,27,0.00,,---,0.00,VWS V14.01,2013-03-16 22:53:00,
2013-03-16 18:58:00,77.4,39.9,29.67,NNW,335,3.0,7.0,26,0.00,,---,0.00,VWS V14.01,2013-03-16 22:58:00,
2013-03-16 19:03:00,77.2,40.7,29.67,SW,234,4.0,5.0,27,0.00,,---,0.00,VWS V14.01,2013-03-16 23:03:00,
2013-03-16 19:08:00,77.0,40.5,29.67,West,278,0.0,5.0,27,0.00,,---,0.00,VWS V14.01,2013-03-16 23:08:00,
2013-03-16 19:13:00,76.8,41.3,29.67,WNW,287,2.0,5.0,28,0.00,,---,0.00,VWS V14.01,2013-03-16 23:13:00,
2013-03-16 19:18:00,76.5,40.1,29.67,NW,309,0.0,10.0,27,0.00,,---,0.00,VWS V14.01,2013-03-16 23:18:00,
2013-03-16 19:23:00,76.1,39.7,29.67,NW,304,2.0,4.0,27,0.00,,---,0.00,VWS V14.01,2013-03-16 23:23:00,
2013-03-16 19:28:00,76.0,39.6,29.67,NW,319,0.0,5.0,27,0.00,,---,0.00,VWS V14.01,2013-03-16 23:28:00,
2013-03-16 19:33:00,75.8,39.5,29.68,WSW,244,0.0,0.0,27,0.00,,---,0.00,VWS V14.01,2013-03-16 23:33:00,
2013-03-16 19:38:00,75.6,39.3,29.68,West,271,0.0,4.0,27,0.00,,---,0.00,VWS V14.01,2013-03-16 23:38:00,
2013-03-16 19:43:00,75.3,40.0,29.68,WNW,289,0.0,0.0,28,0.00,,---,0.00,VWS V14.01,2013-03-16 23:43:00,
2013-03-16 19:48:00,75.1,39.8,29.69,NW,319,0.0,3.0,28,0.00,,---,0.00,VWS V14.01,2013-03-16 23:48:00,
2013-03-16 19:53:00,74.9,38.7,29.69,WNW,289,0.0,0.0,27,0.00,,---,0.00,VWS V14.01,2013-03-16 23:53:00,
2013-03-16 19:58:00,74.6,39.4,29.69,WNW,289,0.0,0.0,28,0.00,,---,0.00,VWS V14.01,2013-03-16 23:58:00,
2013-03-16 20:03:00,74.4,39.2,29.70,WNW,282,0.0,0.0,28,0.00,,---,0.00,VWS V14.01,2013-03-17 00:03:00,
2013-03-16 20:08:00,74.0,39.8,29.70,WNW,282,0.0,0.0,29,0.00,,---,0.00,VWS V14.01,2013-03-17 00:08:00,
2013-03-16 20:13:00,73.9,39.7,29.70,WNW,284,0.0,0.0,29,0.00,,---,0.00,VWS V14.01,2013-03-17 00:13:00,
2013-03-16 20:18:00,73.5,40.2,29.70,WSW,258,0.0,3.0,30,0.00,,---,0.00,VWS V14.01,2013-03-17 00:18:00,
2013-03-16 20:23:00,73.2,39.1,29.70,WSW,257,0.0,0.0,29,0.00,,---,0.00,VWS V14.01,2013-03-17 00:23:00,
2013-03-16 20:28:00,73.0,40.6,29.70,SW,234,0.0,3.0,31,0.00,,---,0.00,VWS V14.01,2013-03-17 00:28:00,
2013-03-16 20:33:00,72.7,40.3,29.71,WSW,248,0.0,1.0,31,0.00,,---,0.00,VWS V14.01,2013-03-17 00:33:00,
2013-03-16 20:38:00,72.3,40.8,29.71,West,281,2.0,7.0,32,0.00,,---,0.00,VWS V14.01,2013-03-17 00:38:00,
2013-03-16 20:43:00,72.1,39.0,29.71,West,260,0.0,0.0,30,0.00,,---,0.00,VWS V14.01,2013-03-17 00:43:00,
2013-03-16 20:48:00,72.0,40.6,29.72,WNW,284,0.0,3.0,32,0.00,,---,0.00,VWS V14.01,2013-03-17 00:48:00,
2013-03-16 20:53:00,72.0,40.6,29.72,NNW,343,0.0,0.0,32,0.00,,---,0.00,VWS V14.01,2013-03-17 00:53:00,
2013-03-16 20:58:00,71.8,39.6,29.72,WSW,240,0.0,4.0,31,0.00,,---,0.00,VWS V14.01,2013-03-17 00:58:00,
2013-03-16 21:03:00,71.6,39.4,29.73,SW,234,0.0,1.0,31,0.00,,---,0.00,VWS V14.01,2013-03-17 01:03:00,
2013-03-16 21:08:00,71.6,40.2,29.73,WSW,240,0.0,3.0,32,0.00,,---,0.00,VWS V14.01,2013-03-17 01:08:00,
2013-03-16 21:13:00,71.5,41.7,29.73,WSW,240,0.0,0.0,34,0.00,,---,0.00,VWS V14.01,2013-03-17 01:13:00,
2013-03-16 21:18:00,71.3,42.3,29.74,WSW,240,0.0,1.0,35,0.00,,---,0.00,VWS V14.01,2013-03-17 01:18:00,
2013-03-16 21:23:00,71.1,41.3,29.74,WSW,240,0.0,0.0,34,0.00,,---,0.00,VWS V14.01,2013-03-17 01:23:00,
2013-03-16 21:28:00,70.8,41.8,29.74,WSW,240,0.0,1.0,35,0.00,,---,0.00,VWS V14.01,2013-03-17 01:28:00,
2013-03-16 21:33:00,70.6,42.4,29.74,South,189,0.0,0.0,36,0.00,,---,0.00,VWS V14.01,2013-03-17 01:33:00,
2013-03-16 21:38:00,70.3,42.1,29.74,NW,305,0.0,3.0,36,0.00,,---,0.00,VWS V14.01,2013-03-17 01:38:00,
2013-03-16 21:43:00,69.9,41.8,29.74,SSE,164,0.0,0.0,36,0.00,,---,0.00,VWS V14.01,2013-03-17 01:43:00,
2013-03-16 21:48:00,69.6,42.9,29.75,NNW,343,0.0,3.0,38,0.00,,---,0.00,VWS V14.01,2013-03-17 01:48:00,
2013-03-16 21:53:00,69.4,42.7,29.75,West,275,0.0,0.0,38,0.00,,---,0.00,VWS V14.01,2013-03-17 01:53:00,
2013-03-16 21:58:00,69.3,42.6,29.75,West,263,0.0,3.0,38,0.00,,---,0.00,VWS V14.01,2013-03-17 01:58:00,
2013-03-16 22:03:00,69.1,43.1,29.76,SW,232,0.0,0.0,39,0.00,,---,0.00,VWS V14.01,2013-03-17 02:03:00,
2013-03-16 22:08:00,69.1,43.1,29.76,NW,320,0.0,0.0,39,0.00,,---,0.00,VWS V14.01,2013-03-17 02:08:00,
2013-03-16 22:13:00,68.9,43.0,29.76,WNW,282,0.0,0.0,39,0.00,,---,0.00,VWS V14.01,2013-03-17 02:13:00,
2013-03-16 22:18:00,68.8,43.5,29.76,West,274,0.0,2.0,40,0.00,,---,0.00,VWS V14.01,2013-03-17 02:18:00,
2013-03-16 22:23:00,68.8,43.5,29.76,WNW,282,0.0,2.0,40,0.00,,---,0.00,VWS V14.01,2013-03-17 02:23:00,
2013-03-16 22:28:00,68.6,43.3,29.76,NNW,328,0.0,2.0,40,0.00,,---,0.00,VWS V14.01,2013-03-17 02:28:00,
2013-03-16 22:33:00,68.4,42.5,29.77,WSW,243,0.0,2.0,39,0.00,,---,0.00,VWS V14.01,2013-03-17 02:33:00,
2013-03-16 22:38:00,68.4,43.2,29.77,WSW,243,0.0,2.0,40,0.00,,---,0.00,VWS V14.01,2013-03-17 02:38:00,
2013-03-16 22:43:00,68.3,43.1,29.77,WSW,243,0.0,0.0,40,0.00,,---,0.00,VWS V14.01,2013-03-17 02:43:00,
2013-03-16 22:48:00,68.1,43.5,29.78,WSW,243,0.0,2.0,41,0.00,,---,0.00,VWS V14.01,2013-03-17 02:48:00,
2013-03-16 22:53:00,67.9,43.4,29.78,SW,232,0.0,0.0,41,0.00,,---,0.00,VWS V14.01,2013-03-17 02:53:00,
2013-03-16 22:57:00,66.3,44.9,29.79,WNW,282,0.0,2.0,46,0.00,,---,0.00,VWS V14.01,2013-03-17 02:57:00,
2013-03-16 22:58:00,67.9,44.0,29.78,WSW,246,0.0,5.0,42,0.00,,---,0.00,VWS V14.01,2013-03-17 02:58:00,
2013-03-16 22:59:00,66.3,44.9,29.79,West,268,1.0,3.0,46,0.00,,---,0.00,VWS V14.01,2013-03-17 02:59:00,
2013-03-16 23:00:00,66.1,44.7,29.79,West,268,0.0,3.0,46,0.00,,---,0.00,VWS V14.01,2013-03-17 03:00:00,
2013-03-16 23:01:00,66.1,44.7,29.79,West,268,0.0,0.0,46,0.00,,---,0.00,VWS V14.01,2013-03-17 03:01:00,
2013-03-16 23:02:00,66.1,44.2,29.79,West,268,0.0,1.0,45,0.00,,---,0.00,VWS V14.01,2013-03-17 03:02:00,
2013-03-16 23:03:00,67.8,43.9,29.78,WSW,241,0.0,0.0,42,0.00,,---,0.00,VWS V14.01,2013-03-17 03:03:00,
2013-03-16 23:08:00,67.6,44.3,29.78,WNW,289,0.0,0.0,43,0.00,,---,0.00,VWS V14.01,2013-03-17 03:08:00,
2013-03-16 23:13:00,67.6,43.7,29.78,SW,236,0.0,0.0,42,0.00,,---,0.00,VWS V14.01,2013-03-17 03:13:00,
2013-03-16 23:18:00,67.4,44.2,29.79,NNW,336,0.0,1.0,43,0.00,,---,0.00,VWS V14.01,2013-03-17 03:18:00,
2013-03-16 23:23:00,67.3,44.1,29.79,NW,309,0.0,0.0,43,0.00,,---,0.00,VWS V14.01,2013-03-17 03:23:00,
2013-03-16 23:28:00,67.3,44.7,29.79,NW,309,0.0,0.0,44,0.00,,---,0.00,VWS V14.01,2013-03-17 03:28:00,
2013-03-16 23:33:00,67.1,43.9,29.79,NW,309,0.0,0.0,43,0.00,,---,0.00,VWS V14.01,2013-03-17 03:33:00,
2013-03-16 23:38:00,66.9,43.7,29.79,WSW,258,1.0,3.0,43,0.00,,---,0.00,VWS V14.01,2013-03-17 03:38:00,
2013-03-16 23:43:00,66.8,44.8,29.79,West,260,0.0,0.0,45,0.00,,---,0.00,VWS V14.01,2013-03-17 03:43:00,
2013-03-16 23:48:00,66.8,44.2,29.79,West,260,0.0,0.0,44,0.00,,---,0.00,VWS V14.01,2013-03-17 03:48:00,
2013-03-16 23:53:00,66.6,45.2,29.79,West,261,1.0,1.0,46,0.00,,---,0.00,VWS V14.01,2013-03-17 03:53:00,
2013-03-16 23:58:00,66.4,45.0,29.79,WNW,282,0.0,1.0,46,0.00,,---,0.00,VWS V14.01,2013-03-17 03:58:00,